CW5920 Weather Reports


time (UTC)temp
C
wind
direction
speed
KPH
gust
KPH
rain 1hr
cm
rain 24hr
cm
rain mn
cm
humidity
%
barometer
mb
20260503025016 18 0.0 0.0 0.00 0.00 0.00 58 1019.6
20260503024036 18 0.0 0.0 0.00 0.00 0.00 57 1019.5
20260503023016 18 0.0 0.0 0.00 0.00 0.00 56 1019.4
20260503022036 18 0.0 0.0 0.00 0.00 0.00 56 1019.2
20260503021016 19 0.0 0.0 0.00 0.00 0.00 55 1019.2
20260503020016 20 0.0 0.0 0.00 0.00 0.00 54 1019.1
20260503015016 20 0.0 0.0 0.00 0.00 0.00 54 1019.0
20260503014016 20 0.0 0.0 0.00 0.00 0.00 53 1019.0
20260503013016 21 0.0 0.0 0.00 0.00 0.00 53 1018.9
20260503012016 21 0.0 0.0 0.00 0.00 0.00 52 1018.9
20260503011016 21 0.0 0.0 0.00 0.00 0.00 51 1018.8
20260503010056 22 0.0 0.0 0.00 0.00 0.00 50 1018.8
20260503005016 22 0.0 0.0 0.00 0.00 0.00 48 1018.8
20260503004016 22 0.0 0.0 0.00 0.00 0.00 47 1018.9
20260503003016 22 0.0 0.0 0.00 0.00 0.00 47 1018.8
20260503002016 22 0.0 0.0 0.00 0.00 0.00 47 1018.8
20260503001016 22 0.0 0.0 0.00 0.00 0.00 45 1018.6
20260503000056 23 0.0 1.6 0.00 0.00 0.00 44 1018.6
20260502235016 23 0.0 0.0 0.00 0.00 0.00 43 1018.7
20260502234016 23 0.0 0.0 0.00 0.00 0.00 44 1018.8
20260502233016 23 0.0 4.8 0.00 0.00 0.00 44 1018.9
20260502232036 23 0 1.6 6.4 0.00 0.00 0.00 42 1018.9
20260502231016 23 0 1.6 4.8 0.00 0.00 0.00 40 1018.9
20260502230016 23 0.0 3.2 0.00 0.00 0.00 42 1019.0
20260502225016 23 0 3.2 6.4 0.00 0.00 0.00 39 1018.9
20260502224036 23 0 1.6 9.7 0.00 0.00 0.00 41 1019.0
20260502223016 24 23 1.6 4.8 0.00 0.00 0.00 40 1019.1
20260502222036 24 0.0 1.6 0.00 0.00 0.00 40 1019.2
20260502221016 24 0 3.2 11.3 0.00 0.00 0.00 39 1019.3
20260502220016 25 338 1.6 9.7 0.00 0.00 0.00 39 1019.4
20260502215016 25 0 4.8 12.9 0.00 0.00 0.00 39 1019.4
20260502214016 25 0.0 4.8 0.00 0.00 0.00 39 1019.5
20260502213016 25 0 1.6 6.4 0.00 0.00 0.00 41 1019.7
20260502212016 25 0 1.6 9.7 0.00 0.00 0.00 40 1019.8
20260502211016 25 0 6.4 12.9 0.00 0.00 0.00 38 1020.0
20260502210036 25 0 3.2 14.5 0.00 0.00 0.00 40 1020.1
20260502205036 25 0 1.6 6.4 0.00 0.00 0.00 39 1020.3
20260502204036 25 293 1.6 6.4 0.00 0.00 0.00 38 1020.4
20260502203016 25 23 3.2 11.3 0.00 0.00 0.00 41 1020.5
20260502202016 25 0 3.2 12.9 0.00 0.00 0.00 39 1020.6
20260502201016 25 23 9.7 17.7 0.00 0.00 0.00 37 1020.7
20260502200016 25 0 4.8 12.9 0.00 0.00 0.00 39 1020.8
20260502195016 25 0 4.8 12.9 0.00 0.00 0.00 37 1020.8
20260502194016 25 0 4.8 16.1 0.00 0.00 0.00 40 1020.9
20260502193016 24 0 3.2 14.5 0.00 0.00 0.00 39 1021.0
20260502192016 24 0 6.4 12.9 0.00 0.00 0.00 37 1021.1
20260502191016 24 0 4.8 14.5 0.00 0.00 0.00 39 1021.2
20260502190036 24 23 8.0 16.1 0.00 0.00 0.00 40 1021.2
20260502185036 23 23 8.0 17.7 0.00 0.00 0.00 37 1021.3
20260502184016 23 23 6.4 14.5 0.00 0.00 0.00 38 1021.5
20260502183016 24 0 4.8 11.3 0.00 0.00 0.00 39 1021.6
20260502182036 24 45 3.2 9.7 0.00 0.00 0.00 43 1021.8
20260502181016 24 45 8.0 16.1 0.00 0.00 0.00 38 1022.0
20260502164016 22 23 3.2 8.0 0.00 0.00 0.00 51 1022.9
20260502163016 22 0 1.6 9.7 0.00 0.00 0.00 53 1022.9
20260502162016 21 0 6.4 12.9 0.00 0.00 0.00 51 1022.8
20260502161016 21 0 1.6 9.7 0.00 0.00 0.00 56 1022.8
20260502152036 19 0 4.8 12.9 0.00 0.00 0.00 71 1022.6
20260502151016 18 0 3.2 8.0 0.00 0.00 0.00 75 1022.7
20260502123016 10 0.0 0.0 0.00 0.05 0.00 92 1021.0
20260502122016 9 0.0 0.0 0.00 0.05 0.00 92 1020.9
20260502121016 9 0.0 0.0 0.00 0.05 0.00 92 1020.7
20260502115016 8 0.0 0.0 0.00 0.05 0.00 92 1020.4
20260502114016 8 0.0 0.0 0.00 0.05 0.00 91 1020.3
20260502113036 8 0.0 0.0 0.00 0.05 0.00 91 1020.0
20260502112016 8 0.0 0.0 0.00 0.05 0.00 91 1019.7
20260502111016 8 0.0 0.0 0.00 0.05 0.00 91 1019.6
20260502110016 8 0.0 0.0 0.00 0.05 0.00 91 1019.5
20260502105016 8 0.0 0.0 0.00 0.05 0.00 91 1019.3
20260502104016 8 0.0 0.0 0.00 0.05 0.00 91 1019.3
20260502103016 8 0.0 0.0 0.00 0.05 0.00 90 1019.3
20260502102016 9 0.0 0.0 0.00 0.05 0.00 90 1019.1
20260502101016 9 0.0 0.0 0.00 0.05 0.00 90 1019.0
20260502091016 10 0.0 0.0 0.00 0.05 0.00 90 1018.9
20260502071017 11 0.0 0.0 0.00 0.05 0.05 88 1019.2
20260502070016 11 0.0 0.0 0.00 0.05 0.05 87 1019.1
20260502065017 11 0.0 0.0 0.00 0.05 0.05 87 1019.0
20260502064016 11 0.0 0.0 0.00 0.05 0.05 86 1019.1
20260502063037 11 0.0 0.0 0.00 0.05 0.05 86 1019.1
20260502062017 11 0.0 0.0 0.00 0.05 0.05 85 1019.3
20260502061016 11 0.0 0.0 0.00 0.05 0.05 84 1019.2
20260502060017 12 0.0 0.0 0.00 0.05 0.05 84 1019.3
20260502055037 12 0.0 0.0 0.00 0.05 0.05 83 1019.4
20260502054016 12 0.0 0.0 0.00 0.05 0.05 83 1019.4
20260502053037 12 0.0 0.0 0.00 0.05 0.05 82 1019.5
20260502052017 12 0.0 0.0 0.00 0.05 0.05 82 1019.4
20260502051037 12 0.0 0.0 0.00 0.05 0.05 81 1019.2
20260502050017 12 0.0 0.0 0.00 0.05 0.05 80 1019.1
20260502045017 13 0.0 0.0 0.00 0.05 0.05 80 1019.0
20260502044016 13 0.0 0.0 0.00 0.05 0.05 80 1019.1
20260502043037 13 0.0 0.0 0.00 0.05 0.05 80 1019.2
20260502042016 13 0.0 0.0 0.00 0.05 0.05 80 1019.0
20260502041017 13 0.0 0.0 0.00 0.05 0.05 79 1018.9
20260502040016 13 0.0 0.0 0.00 0.05 0.05 78 1018.9
20260502035117 13 0.0 0.0 0.00 0.05 0.05 77 1018.9
20260502034016 13 0.0 0.0 0.00 0.05 0.05 77 1018.7
20260502033016 13 0.0 0.0 0.00 0.05 0.05 76 1018.8
20260502032016 13 0.0 0.0 0.00 0.05 0.05 76 1018.5
20260502031017 13 0.0 0.0 0.00 0.05 0.05 74 1018.5
20260502030017 14 0.0 0.0 0.00 0.05 0.05 73 1018.6